{"data":{"norad_id":57500,"intl_designator":"2023-113F","name":"STARLINK-30164","alt_names":[],"object_type":"PAYLOAD","status":"ACTIVE","operator":null,"country":"US","launch_date":"2023-08-07","launch_site_code":"AFETR","launch_vehicle":null,"mission":null,"orbit_class":"UNKNOWN","rcs_meters":null,"size_class":null,"mass_kg":null,"dimensions":null,"purposes":["comms"],"wikipedia_slug":null,"has_3d_model":false,"image_url":null,"decayed_at":null,"tle_current":{"epoch":"2026-09-20T17:27:01.589472Z","epoch_age_seconds":108032,"freshness":"FRESH","line1":"1 57500U 23113F   26263.72710173 -.00006086  00000+0 -21159-3 0  9996","line2":"2 57500  43.0047 354.6013 0001942 275.1346  84.9284 15.27609588173505","mean_motion":15.27609588,"eccentricity":0.0001942,"inclination_deg":43.0047,"raan_deg":354.6013,"arg_perigee_deg":275.1346,"mean_anomaly_deg":84.9284,"bstar":-0.00021159,"rev_number":17350,"period_min":94.264922877664,"perigee_km":481.62807521888,"apogee_km":484.29292548802,"semimajor_km":6861.0975003534,"source":"CELESTRAK","updated_at":"2026-09-21T09:00:33.633050Z"}}}